FW5866 Weather Reports


Display with metric or nautical units.
time (UTC)temp
F
wind
direction
speed
MPH
gust
MPH
rain 1hr
in
rain 24hr
in
rain mn
in
humidity
%
barometer
mb
20260903213049 79 0 0.0 0.0 0.00 0.20 0.20 92 1014.8
20260903211557 78 0 0.0 1.0 0.05 0.20 0.20 92 1014.7
20260903210058 78 0 1.0 4.0 0.11 0.20 0.20 92 1015.2
20260903204552 78 0 2.0 6.0 0.11 0.20 0.20 92 1015.8
20260903203108 78 292 6.0 11.0 0.16 0.20 0.20 92 1015.9
20260903201556 79 257 1.0 7.0 0.15 0.15 0.15 89 1016.2
20260903200111 81 153 3.0 8.0 0.09 0.09 0.09 87 1016.2
20260903194559 82 281 2.0 6.0 0.09 0.09 0.09 87 1015.3
20260903193054 84 154 0.0 3.0 0.03 0.03 0.03 84 1015.5
20260903191549 85 163 1.0 5.0 0.00 0.00 0.00 82 1015.9
20260903190057 88 148 0.0 3.0 0.00 0.00 0.00 83 1015.9
20260903184555 88 154 0.0 4.0 0.00 0.00 0.00 84 1015.9
20260903183057 87 0 0.0 1.0 0.00 0.00 0.00 85 1016.1
20260903181549 87 62 0.0 3.0 0.00 0.00 0.00 84 1016.4
20260903180049 88 60 0.0 3.0 0.00 0.00 0.00 84 1016.4
20260903174555 89 0 1.0 4.0 0.00 0.00 0.00 83 1016.4
20260903173058 89 81 0.0 6.0 0.00 0.00 0.00 84 1016.5
20260903171553 88 0 1.0 5.0 0.00 0.00 0.00 85 1016.5
20260903164557 87 0 0.0 3.0 0.00 0.00 0.00 87 1016.6
20260903163055 87 0 0.0 0.0 0.00 0.00 0.00 87 1016.8
20260903161549 87 0 0.0 2.0 0.00 0.00 0.00 89 1016.8
20260903160057 85 0 0.0 2.0 0.00 0.00 0.00 90 1017.0
20260903154554 84 209 0.0 3.0 0.00 0.00 0.00 90 1017.0
20260903153054 83 156 0.0 2.0 0.00 0.00 0.00 91 1017.0
20260903151601 83 0 0.0 3.0 0.00 0.00 0.00 92 1017.1
20260903150111 83 121 0.0 3.0 0.00 0.00 0.00 93 1017.1
20260903144610 83 157 0.0 5.0 0.00 0.00 0.00 93 1017.1
20260903143054 82 0 0.0 2.0 0.00 0.00 0.00 94 1017.1
20260903141554 82 0 0.0 2.0 0.00 0.00 0.00 94 1017.1
20260903140104 82 0 0.0 0.0 0.00 0.00 0.00 94 1017.1
20260903134614 82 0 0.0 3.0 0.00 0.00 0.00 94 1017.1
20260903133106 81 96 0.0 2.0 0.00 0.00 0.00 94 1017.1
20260903131554 80 0 0.0 2.0 0.00 0.00 0.00 95 1017.2
20260903130105 80 0 0.0 2.0 0.00 0.00 0.00 94 1017.2
20260903124600 79 0 0.0 1.0 0.00 0.00 0.00 94 1017.2
20260903123057 78 0 0.0 4.0 0.00 0.00 0.00 94 1017.1
20260903121553 77 0 0.0 3.0 0.00 0.00 0.00 94 1017.0
20260903120109 76 0 0.0 0.0 0.00 0.00 0.00 93 1016.8
20260903114555 76 0 0.0 0.0 0.00 0.00 0.00 93 1016.8
20260903113053 76 0 0.0 0.0 0.00 0.00 0.00 93 1016.6
20260903111551 76 0 0.0 0.0 0.00 0.00 0.00 93 1016.6
20260903110104 76 0 0.0 0.0 0.00 0.00 0.00 93 1016.4
20260903104611 76 0 0.0 0.0 0.00 0.00 0.00 93 1016.3
20260903103053 76 0 0.0 0.0 0.00 0.00 0.00 93 1016.1
20260903101604 76 0 0.0 0.0 0.00 0.00 0.00 93 1016.1
20260903100059 76 0 0.0 0.0 0.00 0.00 0.00 93 1015.9
20260903094605 76 0 0.0 0.0 0.00 0.00 0.00 92 1015.9
20260903093104 76 0 0.0 0.0 0.00 0.00 0.00 92 1015.9
20260903091615 77 0 0.0 0.0 0.00 0.00 0.00 92 1015.9
20260903090059 77 0 0.0 0.0 0.00 0.00 0.00 93 1015.9
20260903084600 77 0 0.0 0.0 0.00 0.00 0.00 93 1015.8
20260903083059 77 0 0.0 0.0 0.00 0.00 0.00 93 1015.8
20260903081556 77 0 0.0 0.0 0.00 0.00 0.00 92 1015.9
20260903074603 78 0 0.0 0.0 0.00 0.00 0.00 92 1015.9
20260903073059 78 0 0.0 0.0 0.00 0.00 0.00 92 1015.8
20260903071614 78 0 0.0 0.0 0.00 0.00 0.00 92 1015.9
20260903070100 77 0 0.0 0.0 0.00 0.00 0.00 91 1016.0
20260903064559 77 0 0.0 0.0 0.00 0.00 0.00 91 1016.2
20260903063106 78 0 0.0 0.0 0.00 0.00 0.00 91 1016.2
20260903061600 78 0 0.0 0.0 0.00 0.00 0.00 91 1016.3
20260903060058 78 0 0.0 0.0 0.00 0.00 0.00 91 1016.3
20260903054556 78 0 0.0 0.0 0.00 0.00 0.00 91 1016.7
20260903053111 79 0 0.0 0.0 0.00 0.00 0.00 91 1016.6
20260903051549 79 0 0.0 0.0 0.00 0.00 0.00 91 1016.7
20260903050106 78 0 0.0 0.0 0.00 0.00 0.00 91 1016.7
20260903044601 78 0 0.0 0.0 0.00 0.00 0.00 90 1016.8
20260903043106 78 0 0.0 0.0 0.00 0.00 0.00 90 1016.7
20260903041600 78 0 0.0 0.0 0.00 0.00 0.00 90 1016.8
20260903040058 78 0 0.0 0.0 0.00 0.00 0.00 90 1017.0
20260903034601 78 0 0.0 0.0 0.00 0.00 0.00 90 1017.1
20260903033050 78 0 0.0 0.0 0.00 0.00 0.00 89 1017.1
20260903031618 79 0 0.0 0.0 0.00 0.00 0.00 89 1017.2
20260903030054 79 0 0.0 0.0 0.00 0.00 0.00 89 1017.4
20260903024551 79 0 0.0 0.0 0.00 0.00 0.00 89 1017.3
20260903023047 80 0 0.0 0.0 0.00 0.00 0.00 88 1017.2
20260903021555 80 0 0.0 0.0 0.00 0.00 0.00 89 1017.0
20260903020104 80 0 0.0 0.0 0.00 0.00 0.00 88 1017.0
20260903014556 80 0 0.0 1.0 0.00 0.00 0.00 88 1016.6
20260903013057 80 0 0.0 0.0 0.00 0.00 0.00 88 1016.4
20260903011559 81 0 0.0 2.0 0.00 0.00 0.00 87 1016.1
20260903010056 82 0 0.0 1.0 0.00 0.00 0.00 87 1016.1
20260903004550 82 0 0.0 0.0 0.00 0.00 0.00 87 1016.0
20260903003051 82 0 0.0 0.0 0.00 0.00 0.00 87 1016.0
20260903001605 83 0 0.0 1.0 0.00 0.00 0.00 87 1016.2
20260903000057 83 0 0.0 1.0 0.00 0.00 0.00 87 1016.3
20260902234555 84 0 0.0 2.0 0.00 0.00 0.00 87 1016.2
20260902233059 84 206 0.0 2.0 0.00 0.00 0.00 87 1016.3
20260902231551 84 0 0.0 0.0 0.00 0.00 0.00 86 1016.2
20260902230058 84 0 0.0 0.0 0.00 0.00 0.00 86 1016.4
20260902224556 84 0 0.0 0.0 0.00 0.00 0.00 86 1016.4
20260902223051 84 0 0.0 0.0 0.00 0.00 0.00 86 1016.3
20260902221607 83 0 0.0 0.0 0.00 0.00 0.00 86 1016.4
20260902220100 83 0 0.0 0.0 0.00 0.00 0.00 86 1016.4
20260902214604 83 0 0.0 1.0 0.00 0.00 0.00 86 1016.7